Location: Newark
(32.9167°N, 112.9667°W)
Time: 06:43:02
(UTC+00:00)

N. Korean satellite - Pass Details

Date: 30 October 2019
Orbit: 456 x 506 km, 97.2° (Epoch: 18 November)

Event Time Altitude Azimuth Distance (km) Brightness Sun altitude
Rises 01:39:17 0° 207° (SSW) 2,465 10.7 -12.3°
Reaches altitude 10° 01:42:10 10° 235° (SW) 1,604 10.3 -12.9°
Maximum altitude 01:43:55 13° 266° (W) 1,414 10.3 -13.2°
Drops below altitude 10° 01:45:42 10° 297° (WNW) 1,620 10.1 -13.6°
Sets 01:48:39 0° 325° (NW) 2,513 10.6 -14.2°
